[[{"header":{"parameterUnit":"m.s-1","parameterCategory":1,"la1":30.2991,"la2":30.254,"lo1":-89.0895,"lo2":-89.0444,"dy":0.0017,"dx":0.0017,"nx":28,"ny":28,"refTime":"2025-04-26T21:00:00:Z","depth":0,"parameterNumber":2,"parameterNumberName":"U-component_of_WINDS"},"data":[0,0,0,0,0,0,0,0,0,0,0,0,0,0,0,0,0,0,0,0,0,0,0,0,0,0,0,0,0,0,0,0,0,0,0,0,0,0,0,0,0,0,0,0,0,0,0,0,0,0,0,0,0,0,0,0,0,0,1.3318,1.3319,0,1.3362,1.3363,1.3363,1.3355,1.3354,1.3353,1.3353,1.3397,1.3399,1.3401,0,0,0,0,0,0,0,0,0,0,0,0,0,1.3224,1.3225,1.3318,1.3319,1.3319,1.3362,1.3363,1.3364,1.3355,1.3354,1.3353,1.3352,1.3396,1.3399,1.3401,0,0,0,0,0,0,0,0,0,0,0,0,0,1.3266,1.3226,1.3318,1.332,1.3321,1.3362,1.3363,1.3364,1.3355,1.3354,1.3353,1.3352,1.3396,1.3398,1.3401,1.3443,0,0,1.341,1.3411,0,0,0,0,0,0,0,0,1.3263,1.3269,1.3319,1.332,1.3321,1.3352,1.3346,1.339,1.3356,1.3342,1.3353,1.3351,1.3383,1.3387,1.3398,1.3445,1.3447,1.341,1.3412,1.3413,1.3414,0,0,0,0,0,0,0,1.3261,1.3267,1.3336,1.332,1.3321,1.3318,1.3323,1.3354,1.3369,1.3343,1.3343,1.3348,1.3383,1.3395,1.3399,1.3448,1.341,1.3413,1.3415,1.3416,1.3528,1.353,0,0,0,0,0,0,1.3257,1.3265,1.3334,1.3337,1.3289,1.3321,1.3326,1.3343,1.3368,1.3371,1.3349,1.3348,1.3391,1.3395,1.34,1.3449,1.3413,1.3416,1.3418,1.3527,1.3529,1.353,0,0,0,0,0,0,1.3255,1.3263,1.3332,1.3301,1.3309,1.3324,1.3343,1.3345,1.3356,1.3373,1.3375,1.3359,1.339,1.3396,1.3432,1.345,1.3417,1.342,1.3526,1.3528,1.3529,1.3547,0,0,0,0,0,0,1.3252,1.3263,1.328,1.3301,1.3311,1.3364,1.3344,1.3346,1.3362,1.336,1.3382,1.3385,1.3389,1.3428,1.3435,1.3453,1.3422,1.3524,1.3527,1.3529,1.3545,1.3549,1.3553,0,0,0,0,0,1.3249,1.3283,1.328,1.3289,1.3333,1.3365,1.3371,1.3376,1.3363,1.3379,1.3389,1.3384,1.3447,1.3431,1.3439,1.3459,1.3523,1.3526,1.3529,1.3543,1.3549,1.3553,0,0,0,0,0,0,1.3264,1.3286,1.3283,1.3326,1.3344,1.3364,1.3385,1.3382,1.3403,1.3401,1.3405,1.341,1.3446,1.3457,1.3438,1.3499,1.3483,1.3488,1.3491,1.3497,1.3501,1.3497,1.3425,0,0,0,0,0,1.3272,1.3297,1.3315,1.3351,1.336,1.3371,1.3385,1.3387,1.3406,1.3413,1.3426,1.3444,1.3467,1.3483,1.3506,1.3547,1.355,1.3564,1.3568,1.3571,1.3575,1.3595,1.3601,1.3539,1.3539,1.3539,0,0,1.3289,1.3304,1.332,1.3354,1.3368,1.3393,1.3377,1.3405,1.3423,1.3417,1.3451,1.3461,1.3481,1.3519,1.3536,1.3529,1.3593,1.3575,1.3578,1.3579,1.3598,1.3604,1.3609,1.3541,1.3541,1.3541,0,0,1.3332,1.3347,1.3377,1.3391,1.3412,1.3419,1.3426,1.3446,1.3453,1.3487,1.3482,1.3504,1.3545,1.3558,1.3571,1.3617,1.3612,1.3624,1.3645,1.3665,1.3669,1.3674,1.3688,1.3693,1.3628,1.3628,1.3628,0,1.335,1.3388,1.3393,1.342,1.3434,1.343,1.3459,1.3473,1.35,1.351,1.3501,1.355,1.3564,1.3604,1.3615,1.3626,1.3632,1.3621,1.3669,1.3673,1.3677,1.3691,1.3696,1.3629,1.3629,1.3629,1.3629,0,1.3408,1.3435,1.3456,1.3482,1.3499,1.3527,1.3535,1.3551,1.3551,1.3558,1.3592,1.3607,1.3632,1.3642,1.3643,1.3681,1.3675,1.3668,1.3651,1.3684,1.3697,1.3702,1.3631,1.363,1.363,1.363,0,0,1.3463,1.3489,1.3497,1.3508,1.353,1.355,1.3577,1.3601,1.3614,1.3633,1.3654,1.3688,1.368,1.3694,1.3696,1.3714,1.3746,1.3703,1.3704,1.3709,1.3787,1.3791,1.3798,1.3743,1.3744,1.3745,1.3784,0,1.3507,1.3555,1.3559,1.3601,1.3624,1.362,1.3643,1.3658,1.3665,1.3685,1.3693,1.3716,1.3705,1.3713,1.373,1.3739,1.3761,1.3736,1.3762,1.3763,1.3756,1.3805,1.381,1.3846,1.379,1.3791,1.3791,0,1.3565,1.3584,1.3629,1.3645,1.3655,1.3676,1.3697,1.3717,1.3733,1.3737,1.3752,1.3751,1.3777,1.376,1.3796,1.3778,1.3789,1.3794,1.3796,1.3797,1.3778,1.3806,1.3858,1.3863,1.38,1.3799,1.3798,0,1.3597,1.3634,1.3666,1.3675,1.3696,1.371,1.372,1.3735,1.3748,1.3767,1.3775,1.3796,1.3807,1.3823,1.3827,1.3815,1.3862,1.3846,1.3864,1.3864,1.3874,1.3873,1.3927,1.3883,1.3883,1.3883,1.3883,0,1.3645,1.3672,1.368,1.3699,1.3729,1.3732,1.3761,1.3769,1.3783,1.3802,1.38,1.3818,1.3823,1.3842,1.3846,1.3873,1.3879,1.3881,1.3882,1.3881,1.388,1.3887,1.3884,1.3884,1.3884,1.3884,1.3884,0,1.3686,1.3693,1.3726,1.3742,1.3747,1.3768,1.3781,1.3799,1.3805,1.3829,1.3835,1.3845,1.3866,1.3872,1.3899,1.3901,1.3933,1.3932,1.3927,1.3926,1.3944,1.3941,1.4003,1.4011,1.3963,1.3964,1.3964,0,1.3715,1.3736,1.3754,1.3766,1.3776,1.3797,1.381,1.3814,1.3827,1.3847,1.3861,1.3883,1.39,1.3935,1.3943,1.3963,1.3961,1.3981,1.3964,1.3962,1.3959,1.3957,1.3958,1.3984,1.3985,1.3985,1.3986,0,1.3766,1.3767,1.3787,1.3806,1.3822,1.3838,1.3853,1.3863,1.3869,1.3884,1.3906,1.3919,1.3945,1.3966,1.3985,1.3994,1.399,1.3991,1.3996,1.3995,1.399,1.3991,1.3934,1.3989,1.3989,1.3989,1.3989,1.3988,1.3801,1.3818,1.3832,1.3853,1.3865,1.3878,1.3895,1.3902,1.3921,1.3942,1.3943,1.3966,1.398,1.4006,1.4015,1.4033,1.4026,1.4034,1.4036,1.4037,1.4038,1.3988,1.4036,1.4036,1.4036,1.4036,1.4036,0,1.385,1.3858,1.3877,1.3898,1.3913,1.3909,1.3924,1.3938,1.3958,1.3972,1.3988,1.4012,1.4031,1.4041,1.406,1.4072,1.4071,1.4077,1.4075,1.4077,1.4043,1.4036,1.4077,1.4077,1.4077,1.4077,1.4077,1.4077,1.3877,1.3904,1.3908,1.394,1.3949,1.3971,1.398,1.3992,1.4003,1.4029,1.4045,1.4051,1.4063,1.4082,1.4099,1.4101,1.4108,1.4114,1.4115,1.4084,1.4079,1.4075,1.4069,1.4116,1.4116,1.4147,1.4147,1.4148]},{"header":{"parameterUnit":"m.s-1","parameterCategory":1,"la1":30.2991,"la2":30.254,"lo1":-89.0895,"lo2":-89.0444,"dy":0.0017,"dx":0.0017,"nx":28,"ny":28,"refTime":"2025-04-26T21:00:00:Z","depth":0,"parameterNumber":3,"parameterNumberName":"V-component_of_WINDS"},"data":[0,0,0,0,0,0,0,0,0,0,0,0,0,0,0,0,0,0,0,0,0,0,0,0,0,0,0,0,0,0,0,0,0,0,0,0,0,0,0,0,0,0,0,0,0,0,0,0,0,0,0,0,0,0,0,0,0,0,1.5852,1.5853,0,1.5886,1.5887,1.5887,1.5867,1.5866,1.5865,1.5865,1.5897,1.5898,1.59,0,0,0,0,0,0,0,0,0,0,0,0,0,1.5766,1.5768,1.5852,1.5853,1.5853,1.5886,1.5887,1.5887,1.5868,1.5866,1.5865,1.5864,1.5896,1.5898,1.59,0,0,0,0,0,0,0,0,0,0,0,0,0,1.5802,1.5769,1.5852,1.5847,1.5847,1.5886,1.5887,1.5887,1.5868,1.5866,1.5865,1.5864,1.5896,1.5898,1.5901,1.5946,0,0,1.5909,1.591,0,0,0,0,0,0,0,0,1.58,1.5805,1.5848,1.5848,1.5848,1.5871,1.5868,1.5907,1.5868,1.586,1.5865,1.5863,1.5889,1.5892,1.5902,1.5947,1.5948,1.5909,1.5911,1.5912,1.5912,0,0,0,0,0,0,0,1.5798,1.5804,1.5866,1.5848,1.5848,1.5842,1.5846,1.5875,1.5882,1.586,1.5859,1.5864,1.5889,1.5899,1.5902,1.5949,1.5909,1.5911,1.5913,1.5914,1.6031,1.6033,0,0,0,0,0,0,1.5796,1.5802,1.5865,1.5867,1.582,1.5845,1.5849,1.5865,1.5882,1.5883,1.5865,1.5863,1.5896,1.5899,1.5903,1.5956,1.5912,1.5914,1.5916,1.603,1.6031,1.6033,0,0,0,0,0,0,1.5794,1.5802,1.5863,1.5834,1.5841,1.5848,1.5866,1.5866,1.5877,1.5885,1.5886,1.5874,1.5895,1.59,1.5935,1.5957,1.5915,1.5918,1.6028,1.603,1.6032,1.6063,0,0,0,0,0,0,1.5792,1.5801,1.5819,1.5835,1.5843,1.5895,1.5868,1.5868,1.5882,1.5879,1.5894,1.5895,1.5894,1.5931,1.5938,1.596,1.592,1.6026,1.6029,1.6031,1.606,1.6066,1.6071,0,0,0,0,0,1.5789,1.5826,1.5821,1.5828,1.5866,1.5897,1.5901,1.59,1.5884,1.5901,1.5906,1.5895,1.5954,1.5935,1.5942,1.5966,1.6024,1.6028,1.6031,1.6057,1.6065,1.6071,0,0,0,0,0,0,1.5813,1.5828,1.5822,1.5866,1.588,1.5893,1.5916,1.5908,1.5927,1.5923,1.5919,1.5923,1.596,1.5966,1.5945,1.6009,1.5986,1.5991,1.6004,1.6011,1.6016,1.6014,1.5922,0,0,0,0,0,1.5824,1.5849,1.586,1.5897,1.5905,1.5909,1.5922,1.592,1.5934,1.594,1.5948,1.5962,1.5983,1.5997,1.6017,1.6061,1.6063,1.608,1.6086,1.609,1.6094,1.6117,1.6124,1.6044,1.6044,1.6044,0,0,1.5845,1.5857,1.5873,1.5902,1.5913,1.5938,1.5914,1.5942,1.596,1.5944,1.5978,1.5984,1.5999,1.6038,1.6056,1.6044,1.6117,1.6095,1.6098,1.61,1.6121,1.6128,1.6135,1.6047,1.6046,1.6046,0,0,1.5897,1.5909,1.5941,1.5952,1.597,1.5972,1.5979,1.5994,1.5997,1.6032,1.602,1.6041,1.6078,1.6089,1.6099,1.6154,1.6144,1.6161,1.619,1.6211,1.6218,1.6223,1.6242,1.6249,1.6165,1.6165,1.6165,0,1.5922,1.596,1.5958,1.5986,1.5999,1.5987,1.6018,1.6029,1.6051,1.606,1.6047,1.6093,1.6102,1.6144,1.6157,1.6166,1.6174,1.6159,1.6217,1.6223,1.6228,1.6246,1.6253,1.6167,1.6167,1.6166,1.6166,0,1.5989,1.6015,1.6039,1.6061,1.6077,1.6106,1.6108,1.6123,1.6119,1.6122,1.6156,1.6167,1.6189,1.6198,1.6194,1.6238,1.6231,1.6218,1.6195,1.6237,1.6254,1.6261,1.617,1.6169,1.6168,1.6168,0,0,1.6058,1.6079,1.6087,1.6097,1.6114,1.6134,1.6162,1.6184,1.6197,1.6213,1.6236,1.6267,1.6255,1.6267,1.6263,1.6282,1.6324,1.6267,1.6267,1.6277,1.6373,1.6382,1.639,1.6318,1.6319,1.632,1.6371,0,1.6111,1.6162,1.616,1.6207,1.623,1.6218,1.6243,1.6255,1.6259,1.6278,1.6281,1.6304,1.6286,1.6293,1.6311,1.6315,1.6343,1.6312,1.6338,1.6339,1.6335,1.6399,1.641,1.6457,1.6378,1.6379,1.638,0,1.618,1.6198,1.6247,1.626,1.627,1.6292,1.6311,1.6331,1.6344,1.6345,1.6358,1.6351,1.6379,1.6355,1.6392,1.637,1.6381,1.6384,1.6386,1.6388,1.6362,1.6403,1.6473,1.648,1.639,1.6389,1.6388,0,1.6224,1.6261,1.6295,1.6304,1.632,1.6336,1.6343,1.6355,1.6368,1.6384,1.6392,1.6412,1.6422,1.6436,1.6435,1.6418,1.6472,1.6448,1.6473,1.6473,1.6485,1.6484,1.6557,1.6492,1.6492,1.6492,1.6491,0,1.6283,1.6313,1.6315,1.6336,1.6369,1.6367,1.6399,1.6405,1.6415,1.6436,1.6426,1.6446,1.6443,1.6462,1.646,1.6491,1.6495,1.6496,1.6495,1.6497,1.6497,1.6504,1.65,1.6494,1.6493,1.6493,1.6492,0,1.6339,1.6341,1.6377,1.6389,1.6393,1.6417,1.6427,1.6446,1.6448,1.6475,1.648,1.6484,1.6506,1.6506,1.653,1.6529,1.6566,1.6562,1.6562,1.6561,1.6585,1.6583,1.6665,1.6675,1.6604,1.6605,1.6605,0,1.6376,1.6399,1.6414,1.6428,1.6436,1.6458,1.6471,1.6469,1.6483,1.6499,1.6516,1.6537,1.6554,1.6589,1.6593,1.6612,1.6607,1.6635,1.661,1.6611,1.6607,1.6606,1.6607,1.664,1.664,1.6641,1.6642,0,1.6442,1.6442,1.6462,1.6482,1.6498,1.6513,1.6528,1.6539,1.6538,1.6554,1.6576,1.6589,1.6615,1.6635,1.6653,1.6659,1.665,1.6649,1.6656,1.6658,1.6657,1.6657,1.6575,1.6647,1.6647,1.6646,1.6646,1.6646,1.6489,1.6509,1.6522,1.6544,1.6555,1.6568,1.6586,1.6591,1.661,1.6631,1.6628,1.6653,1.6665,1.6688,1.6695,1.6714,1.6704,1.6714,1.6716,1.6718,1.6721,1.6654,1.6717,1.6717,1.6717,1.6717,1.6717,0,1.6554,1.6562,1.6582,1.6603,1.662,1.661,1.6625,1.664,1.6662,1.6674,1.6691,1.6716,1.6736,1.6741,1.676,1.6774,1.677,1.6779,1.6777,1.6779,1.6729,1.6721,1.6781,1.6781,1.6781,1.6781,1.6781,1.6781,1.659,1.6622,1.6624,1.6661,1.6668,1.6693,1.6702,1.6714,1.6723,1.6752,1.6769,1.6772,1.6781,1.6801,1.6818,1.6819,1.6826,1.6836,1.6835,1.6789,1.6782,1.6776,1.6769,1.6838,1.6838,1.6884,1.6884,1.6884]}]]